Location: Demmingen
(48.6757°N, 10.4375°E)
Time: 20:05:09
(UTC+00:00)

SL-16 R/B - Pass Details

Date: 08 August 2024
Orbit: 842 x 845 km, 71.0° (Epoch: 10 September)

Event Time Altitude Azimuth Distance (km) Brightness Sun altitude
Rises 03:08:21 0° 287° (WNW) 3,406 5.0 -8.4°
Reaches altitude 10° 03:13:47 10° 330° (NNW) 2,475 4.7 -7.7°
Maximum altitude 03:14:28 10° 337° (NNW) 2,462 4.8 -7.6°
Drops below altitude 10° 03:15:07 10° 343° (NNW) 2,475 4.9 -7.5°
Sets 03:20:36 0° 27° (NNE) 3,415 6.5 -6.8°
